{"data":{"norad_id":63410,"intl_designator":"2025-065M","name":"STARLINK-33677","alt_names":[],"object_type":"PAYLOAD","status":"ACTIVE","operator":null,"country":"US","launch_date":"2025-03-31","launch_site_code":"AFETR","launch_vehicle":null,"mission":null,"orbit_class":"UNKNOWN","rcs_meters":null,"size_class":null,"mass_kg":null,"dimensions":null,"purposes":["comms"],"wikipedia_slug":null,"has_3d_model":false,"image_url":null,"decayed_at":null,"tle_current":{"epoch":"2026-05-24T18:05:01.250880Z","epoch_age_seconds":103745,"freshness":"FRESH","line1":"1 63410U 25065M   26144.75348670  .00015784  00000+0  58172-3 0  9999","line2":"2 63410  43.0050  37.4390 0001303 258.7190 101.3516 15.27588997 64472","mean_motion":15.27588997,"eccentricity":0.0001303,"inclination_deg":43.005,"raan_deg":37.439,"arg_perigee_deg":258.719,"mean_anomaly_deg":101.3516,"bstar":0.00058172,"rev_number":6447,"period_min":94.266193513307,"perigee_km":482.12814687921,"apogee_km":483.91616495524,"semimajor_km":6861.1591559172,"source":"CELESTRAK","updated_at":"2026-05-25T13:38:19.970571Z"}}}